Location: Bühlhof
(48.7849°N, 8.6361°E)
Time: 22:58:00
(UTC+00:00)

USA 267 - Pass Details

Date: 19 January 2026
Orbit: 1101 x 1107 km, 123.0° (Epoch: 10 January)

Event Time Altitude Azimuth Distance (km) Brightness Sun altitude
Exits shadow 18:57:14 69° 79° (E) 1,175 3.1 -28.3°
Maximum altitude 18:57:57 76° 29° (NNE) 1,137 3.1 -28.4°
Drops below altitude 10° 19:04:29 10° 305° (NW) 2,966 6.2 -29.5°
Sets 19:06:58 0° 304° (NW) 3,925 7.0 -29.9°
